Location: Newark
(50.4348°N, 30.5552°E)
Time: 07:24:06
(UTC+00:00)

Tiros 1 despin weight - Pass Details

Date: 28 January 2020
Orbit: 594 x 642 km, 48.2° (Epoch: 21 February)

Event Time Altitude Azimuth Distance (km) Brightness Sun altitude
Rises 10:31:22 0° 260° (W) 2,869 ? 21.1°
Reaches altitude 10° 10:33:39 10° 258° (WSW) 1,973 ? 21.1°
Maximum altitude 10:38:09 66° 176° (S) 678 ? 21.0°
Drops below altitude 10° 10:42:44 10° 95° (E) 2,004 ? 20.9°
Sets 10:45:05 0° 92° (E) 2,919 ? 20.9°
